Time,TemperatureF,DewpointF,PressureIn,WindDirection,WindDirectionDegrees,WindSpeedMPH,WindSpeedGustMPH,Humidity,HourlyPrecipIn,Conditions,Clouds,dailyrainin,SoftwareType,DateUTC
2013-07-04 00:09:00,59.9,60.0,30.13,SE,131,0.0,-999.0,100,-99.99,,,1.56,weatherlink.com 1.10,2013-07-04 04:09:00,
2013-07-04 00:24:00,61.0,61.0,30.14,SE,131,0.0,-999.0,100,-99.99,,,0.00,weatherlink.com 1.10,2013-07-04 04:24:00,
2013-07-04 00:39:00,61.3,61.0,30.12,SE,131,0.0,-999.0,100,-99.99,,,0.00,weatherlink.com 1.10,2013-07-04 04:39:00,
2013-07-04 00:54:00,61.3,61.0,30.12,SE,131,0.0,-999.0,100,-99.99,,,0.00,weatherlink.com 1.10,2013-07-04 04:54:00,
2013-07-04 01:09:00,61.5,62.0,30.13,SE,131,0.0,-999.0,100,-99.99,,,0.02,weatherlink.com 1.10,2013-07-04 05:09:00,
2013-07-04 01:24:00,61.3,61.0,30.13,SE,131,0.0,-999.0,100,-99.99,,,0.03,weatherlink.com 1.10,2013-07-04 05:24:00,
2013-07-04 01:39:00,61.5,62.0,30.12,SE,131,0.0,-999.0,100,-99.99,,,0.03,weatherlink.com 1.10,2013-07-04 05:39:00,
2013-07-04 01:55:00,62.1,62.0,30.12,West,270,0.0,-999.0,100,-99.99,,,0.04,weatherlink.com 1.10,2013-07-04 05:55:00,
2013-07-04 02:10:00,62.4,62.0,30.12,West,270,0.0,-999.0,100,-99.99,,,0.07,weatherlink.com 1.10,2013-07-04 06:10:00,
2013-07-04 02:25:00,62.3,62.0,30.10,West,270,0.0,-999.0,100,-99.99,,,0.12,weatherlink.com 1.10,2013-07-04 06:25:00,
2013-07-04 02:40:00,62.0,62.0,30.09,West,270,0.0,-999.0,100,-99.99,,,0.12,weatherlink.com 1.10,2013-07-04 06:40:00,
2013-07-04 02:55:00,62.1,62.0,30.10,West,270,0.0,-999.0,100,-99.99,,,0.14,weatherlink.com 1.10,2013-07-04 06:55:00,
2013-07-04 03:10:00,62.3,62.0,30.10,West,270,0.0,-999.0,100,-99.99,,,0.15,weatherlink.com 1.10,2013-07-04 07:10:00,
2013-07-04 03:25:00,62.4,62.0,30.09,West,270,0.0,-999.0,100,-99.99,,,0.15,weatherlink.com 1.10,2013-07-04 07:25:00,
2013-07-04 03:40:00,62.4,62.0,30.09,West,270,0.0,-999.0,100,-99.99,,,0.15,weatherlink.com 1.10,2013-07-04 07:40:00,
2013-07-04 03:55:00,62.6,63.0,30.09,West,270,0.0,-999.0,100,-99.99,,,0.19,weatherlink.com 1.10,2013-07-04 07:55:00,
2013-07-04 04:10:00,62.6,63.0,30.09,West,270,0.0,-999.0,100,-99.99,,,0.20,weatherlink.com 1.10,2013-07-04 08:10:00,
2013-07-04 04:25:00,62.7,63.0,30.09,West,270,0.0,-999.0,100,-99.99,,,0.21,weatherlink.com 1.10,2013-07-04 08:25:00,
2013-07-04 04:40:00,62.9,63.0,30.09,West,270,0.0,-999.0,100,-99.99,,,0.21,weatherlink.com 1.10,2013-07-04 08:40:00,
2013-07-04 04:55:00,62.9,63.0,30.09,West,270,0.0,-999.0,100,-99.99,,,0.22,weatherlink.com 1.10,2013-07-04 08:55:00,
2013-07-04 05:10:00,62.9,63.0,30.10,ESE,114,0.0,-999.0,100,-99.99,,,0.24,weatherlink.com 1.10,2013-07-04 09:10:00,
2013-07-04 05:25:00,63.1,63.0,30.11,NW,309,0.0,-999.0,100,-99.99,,,0.25,weatherlink.com 1.10,2013-07-04 09:25:00,
2013-07-04 05:40:00,63.2,63.0,30.10,WNW,298,0.0,-999.0,100,-99.99,,,0.26,weatherlink.com 1.10,2013-07-04 09:40:00,
2013-07-04 05:55:00,63.4,63.0,30.09,SSW,210,0.0,-999.0,100,-99.99,,,0.27,weatherlink.com 1.10,2013-07-04 09:55:00,
2013-07-04 06:10:00,63.5,64.0,30.09,NW,308,0.0,-999.0,100,-99.99,,,0.28,weatherlink.com 1.10,2013-07-04 10:10:00,
2013-07-04 06:25:00,63.5,64.0,30.09,East,89,0.0,-999.0,100,-99.99,,,0.28,weatherlink.com 1.10,2013-07-04 10:25:00,
2013-07-04 06:40:00,63.9,64.0,30.09,SSW,203,0.0,-999.0,100,-99.99,,,0.28,weatherlink.com 1.10,2013-07-04 10:40:00,
2013-07-04 06:55:00,63.9,64.0,30.11,NNE,32,0.0,-999.0,100,-99.99,,,0.28,weatherlink.com 1.10,2013-07-04 10:55:00,
2013-07-04 07:10:00,63.9,64.0,30.11,NNE,30,0.0,-999.0,100,-99.99,,,0.28,weatherlink.com 1.10,2013-07-04 11:10:00,
2013-07-04 07:25:00,64.0,64.0,30.11,WNW,301,0.0,-999.0,100,-99.99,,,0.28,weatherlink.com 1.10,2013-07-04 11:25:00,
2013-07-04 07:40:00,64.2,64.0,30.12,WNW,298,0.0,-999.0,100,-99.99,,,0.28,weatherlink.com 1.10,2013-07-04 11:40:00,
2013-07-04 07:55:00,64.0,64.0,30.12,WNW,288,0.0,-999.0,100,-99.99,,,0.28,weatherlink.com 1.10,2013-07-04 11:55:00,
2013-07-04 08:10:00,64.0,64.0,30.12,East,97,0.0,-999.0,100,-99.99,,,0.28,weatherlink.com 1.10,2013-07-04 12:10:00,
2013-07-04 08:25:00,64.3,64.0,30.13,ESE,102,0.0,-999.0,100,-99.99,,,0.28,weatherlink.com 1.10,2013-07-04 12:25:00,
2013-07-04 08:40:00,64.3,64.0,30.14,ESE,102,0.0,-999.0,100,-99.99,,,0.28,weatherlink.com 1.10,2013-07-04 12:40:00,
2013-07-04 08:55:00,64.8,65.0,30.14,ESE,102,0.0,-999.0,100,-99.99,,,0.29,weatherlink.com 1.10,2013-07-04 12:55:00,
2013-07-04 09:10:00,65.2,65.0,30.14,NNW,328,0.0,-999.0,100,-99.99,,,0.29,weatherlink.com 1.10,2013-07-04 13:10:00,
2013-07-04 09:25:00,65.0,65.0,30.14,East,100,0.0,-999.0,100,-99.99,,,0.29,weatherlink.com 1.10,2013-07-04 13:25:00,
2013-07-04 09:40:00,65.2,65.0,30.16,North,4,0.0,-999.0,100,-99.99,,,0.29,weatherlink.com 1.10,2013-07-04 13:40:00,
2013-07-04 09:55:00,65.2,65.0,30.15,WSW,257,0.0,-999.0,100,-99.99,,,0.30,weatherlink.com 1.10,2013-07-04 13:55:00,
2013-07-04 10:10:00,65.5,66.0,30.14,WNW,295,0.0,-999.0,100,-99.99,,,0.30,weatherlink.com 1.10,2013-07-04 14:10:00,
2013-07-04 10:25:00,65.8,66.0,30.14,WNW,298,0.0,-999.0,100,-99.99,,,0.30,weatherlink.com 1.10,2013-07-04 14:25:00,
2013-07-04 10:40:00,65.0,65.0,30.14,West,277,0.0,-999.0,100,-99.99,,,0.30,weatherlink.com 1.10,2013-07-04 14:40:00,
2013-07-04 10:55:00,64.8,65.0,30.15,North,0,0.0,-999.0,100,-99.99,,,0.30,weatherlink.com 1.10,2013-07-04 14:55:00,
2013-07-04 11:10:00,65.3,65.0,30.15,North,6,0.0,-999.0,100,-99.99,,,0.30,weatherlink.com 1.10,2013-07-04 15:10:00,
2013-07-04 11:25:00,65.2,65.0,30.14,NNW,343,0.0,-999.0,100,-99.99,,,0.33,weatherlink.com 1.10,2013-07-04 15:25:00,
2013-07-04 11:40:00,65.6,66.0,30.15,NNE,30,0.0,-999.0,100,-99.99,,,0.33,weatherlink.com 1.10,2013-07-04 15:40:00,
2013-07-04 11:55:00,65.6,66.0,30.14,SW,216,0.0,-999.0,100,-99.99,,,0.33,weatherlink.com 1.10,2013-07-04 15:55:00,
2013-07-04 12:10:00,65.8,66.0,30.14,NE,38,0.0,-999.0,100,-99.99,,,0.33,weatherlink.com 1.10,2013-07-04 16:10:00,
2013-07-04 12:26:00,66.1,66.0,30.14,SW,230,0.0,-999.0,100,-99.99,,,0.33,weatherlink.com 1.10,2013-07-04 16:26:00,
2013-07-04 12:41:00,66.4,66.0,30.13,SW,230,0.0,-999.0,100,-99.99,,,0.44,weatherlink.com 1.10,2013-07-04 16:41:00,
2013-07-04 12:56:00,66.3,66.0,30.13,NNW,342,0.0,-999.0,100,-99.99,,,0.53,weatherlink.com 1.10,2013-07-04 16:56:00,
2013-07-04 13:11:00,67.1,67.0,30.12,NW,309,0.0,-999.0,100,-99.99,,,0.53,weatherlink.com 1.10,2013-07-04 17:11:00,
2013-07-04 13:26:00,67.3,67.0,30.12,SE,141,1.0,-999.0,100,-99.99,,,0.53,weatherlink.com 1.10,2013-07-04 17:26:00,
2013-07-04 13:41:00,67.1,67.0,30.12,SSE,168,0.0,-999.0,100,-99.99,,,0.55,weatherlink.com 1.10,2013-07-04 17:41:00,
2013-07-04 13:56:00,67.1,67.0,30.12,NNW,330,0.0,-999.0,100,-99.99,,,0.67,weatherlink.com 1.10,2013-07-04 17:56:00,
2013-07-04 14:11:00,67.6,68.0,30.11,SSE,150,0.0,-999.0,100,-99.99,,,0.69,weatherlink.com 1.10,2013-07-04 18:11:00,
2013-07-04 14:26:00,68.1,68.0,30.11,SW,233,0.0,-999.0,100,-99.99,,,0.69,weatherlink.com 1.10,2013-07-04 18:26:00,
2013-07-04 14:41:00,69.3,69.0,30.09,NNW,344,0.0,-999.0,100,-99.99,,,0.69,weatherlink.com 1.10,2013-07-04 18:41:00,
2013-07-04 14:56:00,68.9,69.0,30.09,NNW,347,0.0,-999.0,100,-99.99,,,0.69,weatherlink.com 1.10,2013-07-04 18:56:00,
2013-07-04 15:11:00,69.4,69.0,30.09,North,0,0.0,-999.0,100,-99.99,,,0.69,weatherlink.com 1.10,2013-07-04 19:11:00,
2013-07-04 15:26:00,70.1,70.0,30.09,SE,131,0.0,-999.0,100,-99.99,,,0.69,weatherlink.com 1.10,2013-07-04 19:26:00,
2013-07-04 15:41:00,70.4,70.0,30.07,NNE,31,1.0,-999.0,98,-99.99,,,0.69,weatherlink.com 1.10,2013-07-04 19:41:00,
2013-07-04 15:56:00,69.8,69.0,30.08,SW,227,1.0,-999.0,96,-99.99,,,0.69,weatherlink.com 1.10,2013-07-04 19:56:00,
2013-07-04 16:11:00,69.9,69.0,30.07,WNW,294,3.0,-999.0,97,-99.99,,,0.69,weatherlink.com 1.10,2013-07-04 20:11:00,
2013-07-04 16:26:00,69.6,69.0,30.07,NW,316,2.0,-999.0,97,-99.99,,,0.69,weatherlink.com 1.10,2013-07-04 20:26:00,
2013-07-04 16:41:00,69.4,69.0,30.07,NW,320,0.0,-999.0,97,-99.99,,,0.69,weatherlink.com 1.10,2013-07-04 20:41:00,
2013-07-04 16:56:00,69.6,69.0,30.07,WSW,257,0.0,-999.0,96,-99.99,,,0.69,weatherlink.com 1.10,2013-07-04 20:56:00,
2013-07-04 17:12:00,69.6,68.0,30.06,NNW,337,0.0,-999.0,95,-99.99,,,0.69,weatherlink.com 1.10,2013-07-04 21:12:00,
2013-07-04 17:26:00,67.9,66.0,30.06,NW,320,0.0,-999.0,94,-99.99,,,0.73,weatherlink.com 1.10,2013-07-04 21:26:00,
2013-07-04 17:41:00,67.8,67.0,30.09,SSE,152,0.0,-999.0,98,-99.99,,,0.99,weatherlink.com 1.10,2013-07-04 21:41:00,
2013-07-04 17:56:00,68.1,68.0,30.08,WNW,289,0.0,-999.0,99,-99.99,,,0.99,weatherlink.com 1.10,2013-07-04 21:56:00,
2013-07-04 18:11:00,68.1,68.0,30.07,South,179,0.0,-999.0,100,-99.99,,,1.05,weatherlink.com 1.10,2013-07-04 22:11:00,
2013-07-04 18:26:00,65.8,65.0,30.09,SSW,192,0.0,-999.0,96,-99.99,,,1.28,weatherlink.com 1.10,2013-07-04 22:26:00,
2013-07-04 18:41:00,65.3,65.0,30.08,WSW,254,6.0,-999.0,99,-99.99,,,1.28,weatherlink.com 1.10,2013-07-04 22:41:00,
2013-07-04 18:56:00,66.1,66.0,30.10,North,10,0.0,-999.0,100,-99.99,,,1.32,weatherlink.com 1.10,2013-07-04 22:56:00,
2013-07-04 19:11:00,66.4,66.0,30.09,SSE,162,0.0,-999.0,100,-99.99,,,1.32,weatherlink.com 1.10,2013-07-04 23:11:00,
2013-07-04 19:26:00,66.4,66.0,30.09,East,80,0.0,-999.0,100,-99.99,,,1.32,weatherlink.com 1.10,2013-07-04 23:26:00,
2013-07-04 19:41:00,66.4,66.0,30.10,North,357,0.0,-999.0,100,-99.99,,,1.32,weatherlink.com 1.10,2013-07-04 23:41:00,
2013-07-04 19:56:00,66.4,66.0,30.09,NW,305,0.0,-999.0,100,-99.99,,,1.32,weatherlink.com 1.10,2013-07-04 23:56:00,
2013-07-04 20:11:00,66.3,66.0,30.09,NNW,328,0.0,-999.0,100,-99.99,,,1.32,weatherlink.com 1.10,2013-07-05 00:11:00,
2013-07-04 20:26:00,66.3,66.0,30.09,North,1,0.0,-999.0,100,-99.99,,,1.32,weatherlink.com 1.10,2013-07-05 00:26:00,
2013-07-04 20:41:00,66.1,66.0,30.09,SSW,202,0.0,-999.0,100,-99.99,,,1.32,weatherlink.com 1.10,2013-07-05 00:41:00,
2013-07-04 20:56:00,66.1,66.0,30.08,NW,304,0.0,-999.0,100,-99.99,,,1.32,weatherlink.com 1.10,2013-07-05 00:56:00,
2013-07-04 21:11:00,65.8,66.0,30.08,WNW,292,0.0,-999.0,100,-99.99,,,1.32,weatherlink.com 1.10,2013-07-05 01:11:00,
2013-07-04 21:26:00,66.0,66.0,30.09,ESE,103,0.0,-999.0,100,-99.99,,,1.48,weatherlink.com 1.10,2013-07-05 01:26:00,
2013-07-04 21:41:00,63.2,63.0,30.12,North,354,0.0,-999.0,100,-99.99,,,1.76,weatherlink.com 1.10,2013-07-05 01:41:00,
2013-07-04 21:56:00,62.7,63.0,30.11,North,0,0.0,-999.0,100,-99.99,,,1.81,weatherlink.com 1.10,2013-07-05 01:56:00,
2013-07-04 22:11:00,62.7,63.0,30.11,NW,308,0.0,-999.0,100,-99.99,,,1.84,weatherlink.com 1.10,2013-07-05 02:11:00,
2013-07-04 22:26:00,62.9,63.0,30.12,South,181,0.0,-999.0,100,-99.99,,,1.84,weatherlink.com 1.10,2013-07-05 02:26:00,
2013-07-04 22:41:00,63.4,63.0,30.12,West,263,0.0,-999.0,100,-99.99,,,1.86,weatherlink.com 1.10,2013-07-05 02:41:00,
2013-07-04 22:56:00,64.2,64.0,30.12,SSW,212,0.0,-999.0,100,-99.99,,,1.86,weatherlink.com 1.10,2013-07-05 02:56:00,
2013-07-04 23:11:00,64.3,64.0,30.12,North,0,5.0,-999.0,100,-99.99,,,1.88,weatherlink.com 1.10,2013-07-05 03:11:00,
2013-07-04 23:26:00,64.5,65.0,30.12,ENE,61,5.0,-999.0,100,-99.99,,,1.89,weatherlink.com 1.10,2013-07-05 03:26:00,
2013-07-04 23:41:00,64.2,64.0,30.11,NNW,342,0.0,-999.0,100,-99.99,,,1.96,weatherlink.com 1.10,2013-07-05 03:41:00,
2013-07-04 23:56:00,63.5,64.0,30.11,WNW,287,0.0,-999.0,100,-99.99,,,1.98,weatherlink.com 1.10,2013-07-05 03:56:00,